Location: Ahausen
(50.4985°N, 8.2722°E)
Time: 01:25:22
(UTC+00:00)

Cosmos 1627 Rocket - Pass Details

Date: 18 September 2020
Orbit: 951 x 1003 km, 82.9° (Epoch: 23 October)

Event Time Altitude Azimuth Distance (km) Brightness Sun altitude
Rises 19:41:36 0° 350° (N) 3,730 8.1 -20.3°
Reaches altitude 10° 19:44:09 10° 353° (N) 2,782 7.4 -20.7°
Maximum altitude 19:50:34 76° 79° (E) 1,037 4.5 -21.5°
Enters shadow 19:53:35 34° 159° (SSE) 1,601 5.2 -21.9°
